OE3MNS-12 Weather Reports


time (UTC)temp
F
wind
direction
speed
knots
gust
knots
rain 1hr
in
rain 24hr
in
rain mn
in
humidity
%
barometer
mb
20260507070519 61 246 7.0 14.8 0.00 0.00 0.00 56 1013.1
20260507065520 60 252 10.4 18.2 0.00 0.00 0.00 57 1013.2
20260507064520 60 252 10.4 18.2 0.00 0.00 0.00 59 1013.2
20260507063539 59 254 8.7 19.1 0.00 0.00 0.00 61 1013.2
20260507062520 58 243 6.1 13.9 0.00 0.00 0.00 63 1013.2
20260507061542 57 252 7.0 13.0 0.00 0.00 0.00 63 1013.1
20260507060519 57 250 7.8 13.9 0.00 0.00 0.00 64 1013.0
20260507055539 58 251 7.0 13.0 0.00 0.00 0.00 64 1012.9
20260507054520 58 250 9.6 13.9 0.00 0.00 0.00 63 1013.0
20260507053539 57 247 5.2 11.3 0.00 0.00 0.00 64 1012.9
20260507052519 57 246 3.5 7.0 0.00 0.00 0.00 65 1012.9
20260507051523 57 249 5.2 11.3 0.00 0.00 0.00 65 1012.7
20260507050519 57 240 6.1 9.6 0.00 0.00 0.00 66 1012.7
20260507045520 56 247 4.3 9.6 0.00 0.00 0.00 66 1012.5
20260507044518 56 238 3.5 7.8 0.00 0.00 0.00 66 1012.5
20260507043519 56 248 5.2 11.3 0.00 0.00 0.00 66 1012.3
20260507042520 56 245 4.3 8.7 0.00 0.00 0.00 66 1012.2
20260507041519 56 246 5.2 9.6 0.00 0.00 0.00 65 1012.0
20260507040521 56 246 4.3 9.6 0.00 0.00 0.00 65 1012.0
20260507035521 56 239 4.3 7.8 0.00 0.00 0.00 65 1011.8
20260507034519 57 248 6.1 13.9 0.00 0.00 0.00 64 1011.8
20260507033521 57 252 6.1 11.3 0.00 0.00 0.00 64 1011.6
20260507032521 57 253 8.7 13.9 0.00 0.00 0.00 64 1011.5
20260507031518 57 258 8.7 15.6 0.00 0.00 0.00 65 1011.5
20260507030521 57 249 7.0 13.0 0.00 0.00 0.00 64 1011.3
20260507030022 57 241 7.0 14.8 0.00 0.00 0.00 64 1011.3
20260507025018 58 242 6.1 13.9 0.00 0.00 0.00 64 1011.2
20260507024019 58 230 5.2 9.6 0.00 0.00 0.00 63 1011.0
20260507023020 58 230 6.1 19.1 0.00 0.00 0.00 63 1011.1
20260507022017 58 241 4.3 9.6 0.00 0.00 0.00 64 1011.0
20260507021039 58 232 6.1 15.6 0.00 0.00 0.00 64 1010.9
20260507020106 58 239 5.2 14.8 0.00 0.00 0.00 65 1010.8
20260507015017 58 220 4.3 11.3 0.00 0.00 0.00 65 1010.8
20260507014019 58 231 5.2 12.2 0.00 0.00 0.00 65 1010.9
20260507013023 58 216 3.5 7.8 0.00 0.00 0.00 66 1010.7
20260507012017 58 213 5.2 12.2 0.00 0.00 0.00 67 1010.5
20260507011020 59 222 4.3 12.2 0.00 0.00 0.00 67 1010.4
20260507010017 59 235 4.3 11.3 0.00 0.00 0.00 67 1010.2
20260507005019 59 228 4.3 9.6 0.00 0.00 0.00 67 1010.3
20260507004021 59 241 7.0 13.0 0.00 0.00 0.00 66 1010.2
20260507003022 59 248 6.1 13.0 0.00 0.00 0.00 66 1010.3
20260507002020 60 233 4.3 9.6 0.00 0.00 0.00 66 1010.2
20260507001020 60 223 6.1 15.6 0.00 0.00 0.00 66 1009.9
20260507000016 60 242 6.1 14.8 0.00 0.00 0.00 67 1009.8
20260506235018 60 244 6.1 13.9 0.00 0.00 0.00 66 1009.6
20260506234042 60 237 6.1 13.9 0.00 0.00 0.00 66 1009.5
20260506233016 61 233 5.2 11.3 0.00 0.00 0.00 66 1009.6
20260506232018 61 240 4.3 9.6 0.00 0.00 0.00 67 1009.5
20260506231021 61 242 6.1 12.2 0.00 0.00 0.00 67 1009.1
20260506230017 61 248 9.6 20.9 0.00 0.00 0.00 67 1009.1
20260506225019 62 236 9.6 18.2 0.00 0.00 0.00 67 1008.7
20260506224021 62 245 12.2 26.1 0.00 0.00 0.00 67 1008.6
20260506223018 62 248 7.8 15.6 0.00 0.00 0.00 64 1008.7
20260506222021 62 256 8.7 16.5 0.00 0.00 0.00 62 1008.3
20260506221016 63 248 11.3 19.1 0.00 0.00 0.00 62 1007.9
20260506220020 63 243 7.8 20.0 0.00 0.00 0.00 60 1007.7
20260506215021 64 224 5.2 11.3 0.00 0.00 0.00 58 1007.4
20260506214017 64 223 5.2 16.5 0.00 0.00 0.00 57 1007.2
20260506213020 65 226 4.3 9.6 0.00 0.00 0.00 55 1007.0
20260506212020 66 227 5.2 13.0 0.00 0.00 0.00 51 1006.8
20260506211018 65 228 3.5 9.6 0.00 0.00 0.00 52 1006.5
20260506210019 66 205 2.6 6.1 0.00 0.00 0.00 52 1006.2
20260506205020 66 197 2.6 7.8 0.00 0.00 0.00 52 1006.1
20260506204018 66 194 1.7 3.5 0.00 0.00 0.00 51 1005.9
20260506203019 66 195 0.9 2.6 0.00 0.00 0.00 51 1005.8
20260506202043 66 194 2.6 6.1 0.00 0.00 0.00 51 1005.6
20260506201019 66 200 1.7 3.5 0.00 0.00 0.00 50 1005.5
20260506200019 67 197 1.7 3.5 0.00 0.00 0.00 51 1005.4
20260506195016 67 171 0.9 5.2 0.00 0.00 0.00 50 1005.3
20260506194018 68 179 1.7 3.5 0.00 0.00 0.00 49 1005.2
20260506193040 68 196 1.7 3.5 0.00 0.00 0.00 48 1005.0
20260506192057 68 160 3.5 7.8 0.00 0.00 0.00 47 1004.8
20260506191020 69 165 1.7 3.5 0.00 0.00 0.00 46 1004.7
20260506190021 70 144 2.6 7.8 0.00 0.00 0.00 45 1004.5
20260506185017 70 173 1.7 2.6 0.00 0.00 0.00 44 1004.5
20260506184021 71 169 3.5 7.8 0.00 0.00 0.00 44 1004.4
20260506183021 71 177 3.5 9.6 0.00 0.00 0.00 44 1004.2
20260506182018 71 162 3.5 7.8 0.00 0.00 0.00 43 1004.0
20260506181020 72 172 4.3 9.6 0.00 0.00 0.00 43 1004.0
20260506180022 72 167 4.3 8.7 0.00 0.00 0.00 42 1003.9
20260506175018 73 172 5.2 11.3 0.00 0.00 0.00 41 1003.7
20260506174019 73 175 6.1 13.9 0.00 0.00 0.00 41 1003.8
20260506173021 74 159 4.3 8.7 0.00 0.00 0.00 41 1003.7
20260506172019 74 168 5.2 13.0 0.00 0.00 0.00 41 1003.9
20260506171041 74 162 5.2 11.3 0.00 0.00 0.00 41 1003.8
20260506170021 74 154 3.5 8.7 0.00 0.00 0.00 40 1003.9
20260506165018 75 157 5.2 9.6 0.00 0.00 0.00 40 1003.9
20260506164041 75 173 3.5 9.6 0.00 0.00 0.00 40 1004.0
20260506163021 75 139 3.5 11.3 0.00 0.00 0.00 39 1004.0
20260506162043 76 153 4.3 11.3 0.00 0.00 0.00 39 1004.0
20260506161039 77 135 5.2 13.0 0.00 0.00 0.00 38 1004.0
20260506160021 78 160 4.3 8.7 0.00 0.00 0.00 37 1004.2
20260506155019 78 192 3.5 7.0 0.00 0.00 0.00 31 1004.2
20260506154016 79 204 3.5 9.6 0.00 0.00 0.00 31 1004.1
20260506153017 79 215 3.5 11.3 0.00 0.00 0.00 31 1004.1
20260506152019 79 219 3.5 7.8 0.00 0.00 0.00 31 1004.1
20260506151018 80 214 5.2 13.0 0.00 0.00 0.00 30 1004.2
20260506150046 81 202 4.3 12.2 0.00 0.00 0.00 29 1004.3
20260506145023 81 228 3.5 7.8 0.00 0.00 0.00 28 1004.1
20260506144021 82 212 4.3 12.2 0.00 0.00 0.00 28 1004.4
20260506143016 81 183 4.3 8.7 0.00 0.00 0.00 30 1004.3
20260506142021 81 164 5.2 14.8 0.00 0.00 0.00 31 1004.3
20260506141017 82 126 4.3 13.0 0.00 0.00 0.00 31 1004.3
20260506140022 81 123 4.3 12.2 0.00 0.00 0.00 31 1004.3
20260506135022 81 76 4.3 12.2 0.00 0.00 0.00 31 1004.5
20260506134020 82 107 4.3 9.6 0.00 0.00 0.00 30 1004.6
20260506133022 82 105 2.6 7.8 0.00 0.00 0.00 31 1004.7
20260506132022 81 97 6.1 15.6 0.00 0.00 0.00 31 1004.6
20260506131017 80 94 5.2 13.0 0.00 0.00 0.00 32 1004.8
20260506130042 80 91 7.0 13.0 0.00 0.00 0.00 32 1005.1
20260506125019 78 94 6.1 13.9 0.00 0.00 0.00 34 1005.4
20260506124021 78 84 5.2 16.5 0.00 0.00 0.00 34 1005.6
20260506123020 79 83 8.7 18.2 0.00 0.00 0.00 34 1005.8
20260506122021 80 81 10.4 19.1 0.00 0.00 0.00 34 1005.6
20260506121019 79 91 9.6 18.2 0.00 0.00 0.00 35 1005.9
20260506120017 77 100 9.6 19.1 0.00 0.00 0.00 36 1006.0
20260506115020 78 95 8.7 15.6 0.00 0.00 0.00 35 1006.1
20260506114019 78 97 5.2 11.3 0.00 0.00 0.00 35 1006.3
20260506113020 78 91 6.1 13.0 0.00 0.00 0.00 36 1006.6
20260506112017 78 91 10.4 21.7 0.00 0.00 0.00 36 1006.5
20260506111020 78 95 6.1 18.2 0.00 0.00 0.00 37 1006.9
20260506110018 77 87 7.8 14.8 0.00 0.00 0.00 38 1006.9
20260506105022 77 88 9.6 19.1 0.00 0.00 0.00 38 1007.0
20260506104019 77 102 7.0 14.8 0.00 0.00 0.00 37 1007.4
20260506103022 77 98 5.2 13.9 0.00 0.00 0.00 37 1007.4
20260506102023 77 84 7.0 15.6 0.00 0.00 0.00 36 1007.4
20260506101021 78 120 5.2 13.0 0.00 0.00 0.00 35 1007.5
20260506100019 77 83 7.8 15.6 0.00 0.00 0.00 37 1007.7
20260506095016 76 102 3.5 13.0 0.00 0.00 0.00 38 1007.9
20260506094019 77 90 5.2 11.3 0.00 0.00 0.00 37 1008.0
20260506093019 77 83 5.2 11.3 0.00 0.00 0.00 38 1008.2
20260506092019 75 87 7.8 18.2 0.00 0.00 0.00 39 1008.2
20260506091039 74 88 3.5 9.6 0.00 0.00 0.00 40 1008.4
20260506090021 74 69 4.3 8.7 0.00 0.00 0.00 42 1008.5
20260506085039 73 53 2.6 6.1 0.00 0.00 0.00 42 1008.6
20260506084102 73 59 3.5 8.7 0.00 0.00 0.00 43 1008.6
20260506083017 73 77 3.5 9.6 0.00 0.00 0.00 43 1008.7
20260506082020 73 105 2.6 5.2 0.00 0.00 0.00 42 1008.8
20260506081039 72 353 1.7 6.1 0.00 0.00 0.00 46 1009.0
20260506073020 70 320 0.9 3.5 0.00 0.00 0.00 50 1009.2
20260506072021 69 249 1.7 3.5 0.00 0.00 0.00 51 1009.3
20260506071019 68 259 1.7 5.2 0.00 0.00 0.00 52 1009.4